sat.trackr.live / text

‹ back to catalog

ONEWEB-0154

NORAD 48045 · 2021-025D

PAYLOAD ACTIVE UNKNOWN

§ Identity

Operator
Country
UK
Launch date
2021-03-25
Launch site
VOSTO
Launch vehicle
Mass (kg)
RCS (m²)

Purposes: comms

External: N2YO · Heavens-Above · Gunter

§ Orbital elements

Epoch: 2026-09-13T01:44:51.044064Z

Period
109.63 min
Inclination
87.8932°
Eccentricity
0.0001941
Mean motion
13.13469871 rev/d
Perigee alt
1,208.3 km
Apogee alt
1,211.2 km
Semi-major
7,587.9 km
B*
-5.4416e-4
RAAN
302.7413°
Arg perigee
94.6398°
Mean anomaly
265.4953°
Rev number
26,504

§ Raw data

ONEWEB-01541 48045U 21025D   26256.07281301 -.00000186  00000+0 -54416-3 0  99932 48045  87.8932 302.7413 0001941  94.6398 265.4953 13.13469871265048

JSON: /api/v1/satellites/48045 · /tle

For live sub-satellite position, see the globe view (requires WebGL).

§ Visibility from observer

Set your observer location to see the next 7 days of passes ≥ 10°. The values pass through the URL so the page stays shareable.

No JS? Fill the form by hand. The geolocation button needs JavaScript.